Location: Barrett Brook
(44.3123°N, 71.7154°W)
Time: 03:32:22
(UTC+00:00)

Envisat - Pass Details

Date: 15 October 2024
Orbit: 762 x 763 km, 98.3° (Epoch: 04 November)

Event Time Altitude Azimuth Distance (km) Brightness Sun altitude
Rises 06:52:59 0° 26° (NNE) 3,235 6.9 -43.2°
Reaches altitude 10° 06:55:48 10° 42° (NE) 2,303 6.1 -42.8°
Enters shadow 06:56:44 14° 50° (NE) 2,047 5.8 -42.7°
